Time,TemperatureF,DewpointF,PressureIn,WindDirection,WindDirectionDegrees,WindSpeedMPH,WindSpeedGustMPH,Humidity,HourlyPrecipIn,Conditions,Clouds,dailyrainin,SoftwareType,DateUTC
2013-08-20 00:04:00,65.1,60.4,30.10,SSW,203,0.0,0.0,85,0.00,,,0.00,WUHU216HW,2013-08-20 04:04:00,
2013-08-20 00:09:00,64.9,60.3,30.10,SSW,203,0.0,0.0,85,0.00,,,0.00,WUHU216HW,2013-08-20 04:09:00,
2013-08-20 00:15:00,64.7,60.1,30.10,SSW,203,0.0,0.0,85,0.00,,,0.00,WUHU216HW,2013-08-20 04:15:00,
2013-08-20 00:20:00,64.7,60.1,30.10,SSW,203,0.0,0.0,85,0.00,,,0.00,WUHU216HW,2013-08-20 04:20:00,
2013-08-20 00:26:00,64.5,60.3,30.10,SSW,203,0.0,0.0,86,0.00,,,0.00,WUHU216HW,2013-08-20 04:26:00,
2013-08-20 00:31:00,64.2,59.9,30.11,SSW,203,0.0,0.0,86,0.00,,,0.00,WUHU216HW,2013-08-20 04:31:00,
2013-08-20 00:36:00,64.2,59.9,30.11,SSW,203,0.0,0.0,86,0.00,,,0.00,WUHU216HW,2013-08-20 04:36:00,
2013-08-20 00:41:00,64.0,59.7,30.10,SSW,203,0.0,0.0,86,0.00,,,0.00,WUHU216HW,2013-08-20 04:41:00,
2013-08-20 00:47:00,64.0,59.7,30.10,SSW,203,0.0,0.0,86,0.00,,,0.00,WUHU216HW,2013-08-20 04:47:00,
2013-08-20 00:52:00,63.6,59.4,30.10,SSW,203,0.0,0.0,86,0.00,,,0.00,WUHU216HW,2013-08-20 04:52:00,
2013-08-20 00:58:00,63.6,59.4,30.10,SSW,203,0.0,0.0,86,0.00,,,0.00,WUHU216HW,2013-08-20 04:58:00,
2013-08-20 01:04:00,63.6,59.4,30.09,SSW,203,0.0,0.0,86,0.00,,,0.00,WUHU216HW,2013-08-20 05:04:00,
2013-08-20 01:09:00,63.6,59.4,30.10,SSW,203,0.0,0.0,86,0.00,,,0.00,WUHU216HW,2013-08-20 05:09:00,
2013-08-20 01:15:00,63.5,59.2,30.10,SSW,203,0.0,0.0,86,0.00,,,0.00,WUHU216HW,2013-08-20 05:15:00,
2013-08-20 01:20:00,63.3,59.0,30.10,SSW,203,0.0,0.0,86,0.00,,,0.00,WUHU216HW,2013-08-20 05:20:00,
2013-08-20 01:26:00,63.3,59.4,30.10,SSW,203,0.0,0.0,87,0.00,,,0.00,WUHU216HW,2013-08-20 05:26:00,
2013-08-20 01:31:00,63.3,59.4,30.10,SSW,203,0.0,0.0,87,0.00,,,0.00,WUHU216HW,2013-08-20 05:31:00,
2013-08-20 01:37:00,63.1,59.2,30.10,SSW,203,0.0,0.0,87,0.00,,,0.00,WUHU216HW,2013-08-20 05:37:00,
2013-08-20 01:42:00,63.1,59.5,30.10,SSW,203,0.0,0.0,88,0.00,,,0.00,WUHU216HW,2013-08-20 05:42:00,
2013-08-20 01:47:00,63.1,59.5,30.10,SSW,203,0.0,0.0,88,0.00,,,0.00,WUHU216HW,2013-08-20 05:47:00,
2013-08-20 01:52:00,63.1,59.5,30.10,SSW,203,0.0,0.0,88,0.00,,,0.00,WUHU216HW,2013-08-20 05:52:00,
2013-08-20 01:57:00,62.9,59.3,30.10,SSW,203,0.0,0.0,88,0.00,,,0.00,WUHU216HW,2013-08-20 05:57:00,
2013-08-20 02:03:00,62.9,59.3,30.10,SSW,203,0.0,0.0,88,0.00,,,0.00,WUHU216HW,2013-08-20 06:03:00,
2013-08-20 02:09:00,62.7,59.2,30.10,SSW,203,0.0,0.0,88,0.00,,,0.00,WUHU216HW,2013-08-20 06:09:00,
2013-08-20 02:14:00,62.7,59.2,30.10,SSW,203,0.0,0.0,88,0.00,,,0.00,WUHU216HW,2013-08-20 06:14:00,
2013-08-20 02:19:00,62.7,59.2,30.09,SSW,203,0.0,0.0,88,0.00,,,0.00,WUHU216HW,2013-08-20 06:19:00,
2013-08-20 02:25:00,62.6,59.0,30.10,SSW,203,0.0,0.0,88,0.00,,,0.00,WUHU216HW,2013-08-20 06:25:00,
2013-08-20 02:30:00,62.4,58.8,30.10,SSW,203,0.0,0.0,88,0.00,,,0.00,WUHU216HW,2013-08-20 06:30:00,
2013-08-20 02:35:00,62.4,58.8,30.09,SSW,203,0.0,0.0,88,0.00,,,0.00,WUHU216HW,2013-08-20 06:35:00,
2013-08-20 02:41:00,62.4,58.8,30.09,SSW,203,0.0,0.0,88,0.00,,,0.00,WUHU216HW,2013-08-20 06:41:00,
2013-08-20 02:47:00,62.4,58.8,30.10,SSW,203,0.0,0.0,88,0.00,,,0.00,WUHU216HW,2013-08-20 06:47:00,
2013-08-20 02:52:00,62.2,58.6,30.10,SSW,203,0.0,0.0,88,0.00,,,0.00,WUHU216HW,2013-08-20 06:52:00,
2013-08-20 02:58:00,62.2,58.6,30.10,SSW,203,0.0,0.0,88,0.00,,,0.00,WUHU216HW,2013-08-20 06:58:00,
2013-08-20 03:03:00,62.4,58.8,30.10,SSW,203,0.0,0.0,88,0.00,,,0.00,WUHU216HW,2013-08-20 07:03:00,
2013-08-20 03:08:00,62.2,59.0,30.10,SSW,203,0.0,0.0,89,0.00,,,0.00,WUHU216HW,2013-08-20 07:08:00,
2013-08-20 03:14:00,62.2,59.0,30.10,SSW,203,0.0,0.0,89,0.00,,,0.00,WUHU216HW,2013-08-20 07:14:00,
2013-08-20 03:20:00,62.0,59.1,30.10,SSW,203,0.0,0.0,90,0.00,,,0.00,WUHU216HW,2013-08-20 07:20:00,
2013-08-20 03:25:00,62.0,59.1,30.10,SSW,203,0.0,0.0,90,0.00,,,0.00,WUHU216HW,2013-08-20 07:25:00,
2013-08-20 03:31:00,61.8,59.0,30.10,SSW,203,0.0,0.0,90,0.00,,,0.00,WUHU216HW,2013-08-20 07:31:00,
2013-08-20 03:36:00,61.8,59.0,30.10,SSW,203,0.0,0.0,90,0.00,,,0.00,WUHU216HW,2013-08-20 07:36:00,
2013-08-20 03:42:00,61.8,59.0,30.10,SSW,203,0.0,0.0,90,0.00,,,0.00,WUHU216HW,2013-08-20 07:42:00,
2013-08-20 03:48:00,61.8,59.0,30.10,SSW,203,0.0,0.0,90,0.00,,,0.00,WUHU216HW,2013-08-20 07:48:00,
2013-08-20 03:54:00,61.7,58.8,30.10,SSW,203,0.0,0.0,90,0.00,,,0.00,WUHU216HW,2013-08-20 07:54:00,
2013-08-20 03:59:00,61.7,58.8,30.10,SSW,203,0.0,0.0,90,0.00,,,0.00,WUHU216HW,2013-08-20 07:59:00,
2013-08-20 04:05:00,61.7,58.8,30.10,SSW,203,0.0,0.0,90,0.00,,,0.00,WUHU216HW,2013-08-20 08:05:00,
2013-08-20 04:10:00,61.7,58.8,30.10,SSW,203,0.0,0.0,90,0.00,,,0.00,WUHU216HW,2013-08-20 08:10:00,
2013-08-20 04:16:00,61.7,58.8,30.10,SSW,203,0.0,0.0,90,0.00,,,0.00,WUHU216HW,2013-08-20 08:16:00,
2013-08-20 04:22:00,61.7,59.1,30.11,SSW,203,0.0,0.0,91,0.00,,,0.00,WUHU216HW,2013-08-20 08:22:00,
2013-08-20 04:28:00,61.7,59.1,30.11,SSW,203,0.0,0.0,91,0.00,,,0.00,WUHU216HW,2013-08-20 08:28:00,
2013-08-20 04:33:00,61.7,59.1,30.11,SSW,203,0.0,0.0,91,0.00,,,0.00,WUHU216HW,2013-08-20 08:33:00,
2013-08-20 04:39:00,61.7,59.1,30.11,SSW,203,0.0,0.0,91,0.00,,,0.00,WUHU216HW,2013-08-20 08:39:00,
2013-08-20 04:44:00,61.7,59.1,30.11,SSW,203,0.0,0.0,91,0.00,,,0.00,WUHU216HW,2013-08-20 08:44:00,
2013-08-20 04:49:00,61.7,59.1,30.11,SSW,203,0.0,0.0,91,0.00,,,0.00,WUHU216HW,2013-08-20 08:49:00,
2013-08-20 04:54:00,61.7,59.1,30.12,SSW,203,0.0,0.0,91,0.00,,,0.00,WUHU216HW,2013-08-20 08:54:00,
2013-08-20 05:00:00,61.7,59.1,30.11,SSW,203,0.0,0.0,91,0.00,,,0.00,WUHU216HW,2013-08-20 09:00:00,
2013-08-20 05:06:00,61.7,59.1,30.11,SSW,203,0.0,0.0,91,0.00,,,0.00,WUHU216HW,2013-08-20 09:06:00,
2013-08-20 05:12:00,61.7,59.1,30.12,SSW,203,0.0,0.0,91,0.00,,,0.00,WUHU216HW,2013-08-20 09:12:00,
2013-08-20 05:17:00,61.7,59.1,30.11,SSW,203,0.0,0.0,91,0.00,,,0.00,WUHU216HW,2013-08-20 09:17:00,
2013-08-20 05:22:00,61.7,59.1,30.11,SSW,203,0.0,0.0,91,0.00,,,0.00,WUHU216HW,2013-08-20 09:22:00,
2013-08-20 05:27:00,61.7,59.1,30.12,SSW,203,0.0,0.0,91,0.00,,,0.00,WUHU216HW,2013-08-20 09:27:00,
2013-08-20 05:32:00,61.8,59.2,30.11,SSW,203,0.0,0.0,91,0.00,,,0.00,WUHU216HW,2013-08-20 09:32:00,
2013-08-20 05:37:00,61.7,59.1,30.12,SSW,203,0.0,0.0,91,0.00,,,0.00,WUHU216HW,2013-08-20 09:37:00,
2013-08-20 05:43:00,61.7,59.1,30.12,SSW,203,0.0,0.0,91,0.00,,,0.00,WUHU216HW,2013-08-20 09:43:00,
2013-08-20 05:48:00,61.7,59.3,30.12,SSW,203,0.0,0.0,92,0.00,,,0.00,WUHU216HW,2013-08-20 09:48:00,
2013-08-20 05:53:00,61.5,59.2,30.13,SSW,203,0.0,0.0,92,0.00,,,0.00,WUHU216HW,2013-08-20 09:53:00,
2013-08-20 05:59:00,61.7,59.3,30.13,SSW,203,0.0,0.0,92,0.00,,,0.00,WUHU216HW,2013-08-20 09:59:00,
2013-08-20 06:04:00,61.7,59.3,30.13,SSW,203,0.0,0.0,92,0.00,,,0.00,WUHU216HW,2013-08-20 10:04:00,
2013-08-20 06:09:00,61.5,59.2,30.13,SSW,203,0.0,0.0,92,0.00,,,0.00,WUHU216HW,2013-08-20 10:09:00,
2013-08-20 06:14:00,61.5,59.2,30.13,SSW,203,0.0,0.0,92,0.00,,,0.00,WUHU216HW,2013-08-20 10:14:00,
2013-08-20 06:20:00,61.5,59.2,30.14,SSW,203,0.0,0.0,92,0.00,,,0.00,WUHU216HW,2013-08-20 10:20:00,
2013-08-20 06:25:00,61.5,59.2,30.14,SSW,203,0.0,0.0,92,0.00,,,0.00,WUHU216HW,2013-08-20 10:25:00,
2013-08-20 06:31:00,61.5,59.2,30.14,SSW,203,0.0,0.0,92,0.00,,,0.00,WUHU216HW,2013-08-20 10:31:00,
2013-08-20 06:36:00,61.5,59.2,30.14,SSW,203,0.0,0.0,92,0.00,,,0.00,WUHU216HW,2013-08-20 10:36:00,
2013-08-20 06:41:00,61.3,59.0,30.15,SSW,203,0.0,0.0,92,0.00,,,0.00,WUHU216HW,2013-08-20 10:41:00,
2013-08-20 06:46:00,61.3,59.0,30.15,SSW,203,0.0,0.0,93,0.00,,,0.00,WUHU216HW,2013-08-20 10:46:00,
2013-08-20 06:51:00,61.5,59.5,30.15,SSW,203,0.0,0.0,93,0.00,,,0.00,WUHU216HW,2013-08-20 10:51:00,
2013-08-20 06:57:00,61.3,59.3,30.15,SSW,203,0.0,0.0,93,0.00,,,0.00,WUHU216HW,2013-08-20 10:57:00,
2013-08-20 07:02:00,61.3,59.3,30.15,SSW,203,0.0,0.0,93,0.00,,,0.00,WUHU216HW,2013-08-20 11:02:00,
2013-08-20 07:08:00,61.3,59.3,30.15,SSW,203,0.0,0.0,93,0.00,,,0.00,WUHU216HW,2013-08-20 11:08:00,
2013-08-20 07:13:00,61.5,59.5,30.15,SSW,203,0.0,0.0,93,0.00,,,0.00,WUHU216HW,2013-08-20 11:13:00,
2013-08-20 07:19:00,61.5,59.5,30.15,SSW,203,0.0,0.0,93,0.00,,,0.00,WUHU216HW,2013-08-20 11:19:00,
2013-08-20 07:25:00,61.5,59.5,30.15,SSW,203,0.0,0.0,93,0.00,,,0.00,WUHU216HW,2013-08-20 11:25:00,
2013-08-20 07:30:00,61.5,59.5,30.16,SSW,203,0.0,0.0,93,0.00,,,0.00,WUHU216HW,2013-08-20 11:30:00,
2013-08-20 07:36:00,61.7,59.6,30.16,SSW,203,0.0,0.0,93,0.00,,,0.00,WUHU216HW,2013-08-20 11:36:00,
2013-08-20 07:42:00,61.7,59.6,30.16,SSW,203,0.0,0.0,93,0.00,,,0.00,WUHU216HW,2013-08-20 11:42:00,
2013-08-20 07:48:00,61.8,59.8,30.16,SSW,203,0.0,0.0,93,0.00,,,0.00,WUHU216HW,2013-08-20 11:48:00,
2013-08-20 07:54:00,62.0,60.0,30.16,SSW,203,0.0,0.0,93,0.00,,,0.00,WUHU216HW,2013-08-20 11:54:00,
2013-08-20 07:59:00,62.2,60.5,30.16,SSW,203,0.0,0.0,94,0.00,,,0.00,WUHU216HW,2013-08-20 11:59:00,
2013-08-20 08:04:00,62.4,60.6,30.16,SSW,203,0.0,0.0,94,0.00,,,0.00,WUHU216HW,2013-08-20 12:04:00,
2013-08-20 08:10:00,62.4,60.6,30.16,SSW,203,0.0,0.0,94,0.00,,,0.00,WUHU216HW,2013-08-20 12:10:00,
2013-08-20 08:15:00,62.6,60.8,30.16,SSW,203,0.0,0.0,94,0.00,,,0.00,WUHU216HW,2013-08-20 12:15:00,
2013-08-20 08:21:00,62.7,61.0,30.16,SSW,203,0.0,0.0,94,0.00,,,0.00,WUHU216HW,2013-08-20 12:21:00,
2013-08-20 08:26:00,63.1,61.4,30.16,SSW,203,0.0,0.0,94,0.00,,,0.00,WUHU216HW,2013-08-20 12:26:00,
2013-08-20 08:31:00,63.5,61.5,30.17,SSW,203,0.0,0.0,94,0.00,,,0.00,WUHU216HW,2013-08-20 12:31:00,
2013-08-20 08:37:00,63.6,61.9,30.17,SSW,203,0.0,0.0,94,0.00,,,0.00,WUHU216HW,2013-08-20 12:37:00,
2013-08-20 08:42:00,63.8,62.1,30.17,SSW,203,0.0,0.0,94,0.00,,,0.00,WUHU216HW,2013-08-20 12:42:00,
2013-08-20 08:47:00,64.0,62.0,30.17,SSW,203,0.0,0.0,93,0.00,,,0.00,WUHU216HW,2013-08-20 12:47:00,
2013-08-20 08:52:00,64.2,62.2,30.17,SSW,203,0.0,0.0,93,0.00,,,0.00,WUHU216HW,2013-08-20 12:52:00,
2013-08-20 08:58:00,64.2,62.4,30.17,SSW,203,0.0,0.0,94,0.00,,,0.00,WUHU216HW,2013-08-20 12:58:00,
2013-08-20 09:03:00,64.5,62.8,30.18,SSW,203,0.0,0.0,94,0.00,,,0.00,WUHU216HW,2013-08-20 13:03:00,
2013-08-20 09:09:00,65.1,63.3,30.18,SSW,203,0.0,0.0,94,0.00,,,0.00,WUHU216HW,2013-08-20 13:09:00,
2013-08-20 09:14:00,65.8,64.0,30.18,SSW,203,0.0,0.0,94,0.00,,,0.00,WUHU216HW,2013-08-20 13:14:00,
2013-08-20 09:19:00,66.0,63.8,30.17,SSW,203,0.0,0.0,93,0.00,,,0.00,WUHU216HW,2013-08-20 13:19:00,
2013-08-20 09:25:00,66.3,64.2,30.17,SSW,203,0.0,0.0,93,0.00,,,0.00,WUHU216HW,2013-08-20 13:25:00,
2013-08-20 09:31:00,66.7,65.0,30.18,SSW,203,0.0,0.0,94,0.00,,,0.00,WUHU216HW,2013-08-20 13:31:00,
2013-08-20 09:37:00,67.2,65.1,30.18,SSW,203,0.0,0.0,93,0.00,,,0.00,WUHU216HW,2013-08-20 13:37:00,
2013-08-20 09:42:00,67.8,65.6,30.18,SSW,203,0.0,0.0,93,0.00,,,0.00,WUHU216HW,2013-08-20 13:42:00,
2013-08-20 09:47:00,68.1,66.0,30.18,SSW,203,0.0,0.0,93,0.00,,,0.00,WUHU216HW,2013-08-20 13:47:00,
2013-08-20 09:52:00,68.5,66.3,30.18,SSW,203,0.0,0.0,93,0.00,,,0.00,WUHU216HW,2013-08-20 13:52:00,
2013-08-20 09:58:00,69.0,66.6,30.18,SSW,203,0.0,0.0,92,0.00,,,0.00,WUHU216HW,2013-08-20 13:58:00,
2013-08-20 10:03:00,69.6,67.1,30.18,SSW,203,0.0,0.0,92,0.00,,,0.00,WUHU216HW,2013-08-20 14:03:00,
2013-08-20 10:08:00,70.3,67.8,30.18,SSW,203,0.0,0.0,92,0.00,,,0.00,WUHU216HW,2013-08-20 14:08:00,
2013-08-20 10:14:00,70.8,68.4,30.18,SSW,203,0.0,0.0,92,0.00,,,0.00,WUHU216HW,2013-08-20 14:14:00,
2013-08-20 10:19:00,71.2,68.4,30.18,SSW,203,0.0,0.0,91,0.00,,,0.00,WUHU216HW,2013-08-20 14:19:00,
2013-08-20 10:25:00,71.9,68.9,30.18,SSW,203,0.0,0.0,90,0.00,,,0.00,WUHU216HW,2013-08-20 14:25:00,
2013-08-20 10:31:00,72.5,69.0,30.18,SSW,203,0.0,0.0,89,0.00,,,0.00,WUHU216HW,2013-08-20 14:31:00,
2013-08-20 10:36:00,73.0,69.2,30.18,SSW,203,0.0,0.0,88,0.00,,,0.00,WUHU216HW,2013-08-20 14:36:00,
2013-08-20 10:41:00,73.2,69.4,30.18,SSW,203,0.0,0.0,88,0.00,,,0.00,WUHU216HW,2013-08-20 14:41:00,
2013-08-20 10:46:00,73.9,69.8,30.18,SSW,203,0.0,0.0,87,0.00,,,0.00,WUHU216HW,2013-08-20 14:46:00,
2013-08-20 10:51:00,74.3,69.8,30.18,SSW,203,0.0,0.0,86,0.00,,,0.00,WUHU216HW,2013-08-20 14:51:00,
2013-08-20 10:57:00,75.0,70.2,30.18,SSW,203,0.0,0.0,85,0.00,,,0.00,WUHU216HW,2013-08-20 14:57:00,
2013-08-20 11:03:00,75.2,69.7,30.18,SSW,203,0.0,0.0,83,0.00,,,0.00,WUHU216HW,2013-08-20 15:03:00,
2013-08-20 11:08:00,75.7,69.8,30.18,SSW,203,0.0,0.0,82,0.00,,,0.00,WUHU216HW,2013-08-20 15:08:00,
2013-08-20 11:14:00,76.2,70.7,30.18,SSW,203,0.0,0.0,83,0.00,,,0.00,WUHU216HW,2013-08-20 15:14:00,
2013-08-20 11:19:00,76.8,70.8,30.18,SSW,203,0.0,0.0,82,0.00,,,0.00,WUHU216HW,2013-08-20 15:19:00,
2013-08-20 11:24:00,77.1,70.5,30.18,SSW,203,0.0,0.0,80,0.00,,,0.00,WUHU216HW,2013-08-20 15:24:00,
2013-08-20 11:29:00,77.7,71.0,30.18,SSW,203,0.0,0.0,80,0.00,,,0.00,WUHU216HW,2013-08-20 15:29:00,
2013-08-20 11:35:00,78.0,71.4,30.18,SSW,203,0.0,0.0,80,0.00,,,0.00,WUHU216HW,2013-08-20 15:35:00,
2013-08-20 11:41:00,78.6,71.1,30.18,SSW,203,0.0,0.0,78,0.00,,,0.00,WUHU216HW,2013-08-20 15:41:00,
2013-08-20 11:46:00,79.1,71.3,30.18,SSW,203,0.0,0.0,77,0.00,,,0.00,WUHU216HW,2013-08-20 15:46:00,
2013-08-20 11:51:00,79.5,71.2,30.18,SSW,203,0.0,0.0,76,0.00,,,0.00,WUHU216HW,2013-08-20 15:51:00,
2013-08-20 11:57:00,79.8,71.2,30.18,SSW,203,0.0,0.0,75,0.00,,,0.00,WUHU216HW,2013-08-20 15:57:00,
2013-08-20 12:02:00,80.2,71.2,30.18,SSW,203,0.0,0.0,74,0.00,,,0.00,WUHU216HW,2013-08-20 16:02:00,
2013-08-20 12:07:00,80.4,70.9,30.18,SSW,203,0.0,0.0,73,0.00,,,0.00,WUHU216HW,2013-08-20 16:07:00,
2013-08-20 12:13:00,80.9,71.0,30.18,SSW,203,0.0,0.0,72,0.00,,,0.00,WUHU216HW,2013-08-20 16:13:00,
2013-08-20 12:18:00,81.5,71.0,30.18,SSW,203,0.0,0.0,71,0.00,,,0.00,WUHU216HW,2013-08-20 16:18:00,
2013-08-20 12:24:00,81.6,71.3,30.18,SSW,203,0.0,0.0,71,0.00,,,0.00,WUHU216HW,2013-08-20 16:24:00,
2013-08-20 12:29:00,82.2,70.5,30.18,SSW,203,0.0,0.0,68,0.00,,,0.00,WUHU216HW,2013-08-20 16:29:00,
2013-08-20 12:40:00,82.9,69.8,30.18,SSW,203,0.0,0.0,65,0.00,,,0.00,WUHU216HW,2013-08-20 16:40:00,
2013-08-20 12:45:00,83.3,69.8,30.17,SSW,203,0.0,0.0,64,0.00,,,0.00,WUHU216HW,2013-08-20 16:45:00,
2013-08-20 12:50:00,83.8,70.3,30.18,SSW,203,0.0,0.0,64,0.00,,,0.00,WUHU216HW,2013-08-20 16:50:00,
2013-08-20 12:56:00,84.5,70.1,30.18,SSW,203,0.0,0.0,62,0.00,,,0.00,WUHU216HW,2013-08-20 16:56:00,
2013-08-20 13:01:00,85.2,69.8,30.18,SSW,203,0.0,0.0,60,0.00,,,0.00,WUHU216HW,2013-08-20 17:01:00,
2013-08-20 13:06:00,85.2,69.3,30.17,SSW,203,0.0,0.0,59,0.00,,,0.00,WUHU216HW,2013-08-20 17:06:00,
2013-08-20 13:12:00,85.2,69.3,30.17,SSW,203,0.0,0.0,59,0.00,,,0.00,WUHU216HW,2013-08-20 17:12:00,
2013-08-20 13:17:00,85.6,68.6,30.17,SSW,203,0.0,0.0,57,0.00,,,0.00,WUHU216HW,2013-08-20 17:17:00,
2013-08-20 13:23:00,85.2,67.7,30.17,SSW,203,0.0,0.0,56,0.00,,,0.00,WUHU216HW,2013-08-20 17:23:00,
2013-08-20 13:29:00,85.2,67.7,30.17,SSW,203,0.0,0.0,56,0.00,,,0.00,WUHU216HW,2013-08-20 17:29:00,
2013-08-20 13:35:00,85.8,68.7,30.17,SSW,203,0.0,0.0,57,0.00,,,0.00,WUHU216HW,2013-08-20 17:35:00,
2013-08-20 13:40:00,86.7,70.1,30.17,SSW,203,0.0,0.0,58,0.00,,,0.00,WUHU216HW,2013-08-20 17:40:00,
2013-08-20 13:46:00,87.6,69.4,30.17,SSW,203,0.0,0.0,55,0.00,,,0.00,WUHU216HW,2013-08-20 17:46:00,
2013-08-20 13:51:00,87.9,69.7,30.17,SSW,203,0.0,0.0,55,0.00,,,0.00,WUHU216HW,2013-08-20 17:51:00,
2013-08-20 13:56:00,88.3,70.1,30.17,WSW,248,0.0,0.0,55,0.00,,,0.00,WUHU216HW,2013-08-20 17:56:00,
2013-08-20 14:02:00,88.8,71.1,30.16,WSW,248,0.0,0.0,56,0.00,,,0.00,WUHU216HW,2013-08-20 18:02:00,
2013-08-20 14:07:00,89.4,70.5,30.16,WSW,248,0.0,0.0,54,0.00,,,0.00,WUHU216HW,2013-08-20 18:07:00,
2013-08-20 14:13:00,89.9,71.0,30.16,WSW,248,0.0,0.0,54,0.00,,,0.00,WUHU216HW,2013-08-20 18:13:00,
2013-08-20 14:18:00,90.3,71.3,30.16,WSW,248,0.0,0.0,54,0.00,,,0.00,WUHU216HW,2013-08-20 18:18:00,
2013-08-20 14:23:00,90.6,71.1,30.16,WSW,248,0.0,0.0,53,0.00,,,0.00,WUHU216HW,2013-08-20 18:23:00,
2013-08-20 14:29:00,90.8,70.7,30.16,WSW,248,0.0,0.0,52,0.00,,,0.00,WUHU216HW,2013-08-20 18:29:00,
2013-08-20 14:35:00,91.0,70.7,30.16,WSW,248,0.0,0.0,52,0.00,,,0.00,WUHU216HW,2013-08-20 18:35:00,
2013-08-20 14:41:00,91.0,71.4,30.16,WSW,248,0.0,0.0,53,0.00,,,0.00,WUHU216HW,2013-08-20 18:41:00,
2013-08-20 14:47:00,91.2,71.6,30.15,WSW,248,0.0,0.0,53,0.00,,,0.00,WUHU216HW,2013-08-20 18:47:00,
2013-08-20 14:53:00,91.4,70.7,30.15,WSW,248,0.0,0.0,51,0.00,,,0.00,WUHU216HW,2013-08-20 18:53:00,
2013-08-20 14:59:00,91.0,70.3,30.15,SSW,203,0.0,0.0,51,0.00,,,0.00,WUHU216HW,2013-08-20 18:59:00,
2013-08-20 15:05:00,89.9,69.7,30.15,WSW,248,0.0,0.0,50,0.00,,,0.00,WUHU216HW,2013-08-20 19:05:00,
2013-08-20 15:10:00,89.7,69.7,30.14,WSW,248,0.0,0.0,52,0.00,,,0.00,WUHU216HW,2013-08-20 19:10:00,
2013-08-20 15:15:00,89.7,69.2,30.14,WSW,248,0.0,0.0,51,0.00,,,0.00,WUHU216HW,2013-08-20 19:15:00,
2013-08-20 15:21:00,90.1,70.1,30.14,SSW,203,0.0,0.0,52,0.00,,,0.00,WUHU216HW,2013-08-20 19:21:00,
2013-08-20 15:27:00,89.9,70.4,30.14,SSW,203,0.0,0.0,53,0.00,,,0.00,WUHU216HW,2013-08-20 19:27:00,
2013-08-20 15:33:00,89.4,70.5,30.14,SSW,203,0.0,0.0,54,0.00,,,0.00,WUHU216HW,2013-08-20 19:33:00,
2013-08-20 15:38:00,89.2,70.3,30.14,WSW,248,0.0,0.0,54,0.00,,,0.00,WUHU216HW,2013-08-20 19:38:00,
2013-08-20 15:43:00,89.2,70.9,30.14,WSW,248,0.0,0.0,55,0.00,,,0.00,WUHU216HW,2013-08-20 19:43:00,
2013-08-20 15:48:00,88.8,70.5,30.14,SSW,203,0.0,0.0,55,0.00,,,0.00,WUHU216HW,2013-08-20 19:48:00,
2013-08-20 15:54:00,88.7,70.9,30.13,WSW,248,0.0,0.0,56,0.00,,,0.00,WUHU216HW,2013-08-20 19:54:00,
2013-08-20 15:59:00,89.4,70.5,30.13,WSW,248,0.0,0.0,54,0.00,,,0.00,WUHU216HW,2013-08-20 19:59:00,
2013-08-20 16:04:00,89.6,70.1,30.13,WSW,248,0.0,0.0,53,0.00,,,0.00,WUHU216HW,2013-08-20 20:04:00,
2013-08-20 16:10:00,90.1,69.5,30.13,WSW,248,0.0,0.0,51,0.00,,,0.00,WUHU216HW,2013-08-20 20:10:00,
2013-08-20 16:15:00,90.3,71.8,30.13,WSW,248,0.0,0.0,55,0.00,,,0.00,WUHU216HW,2013-08-20 20:15:00,
2013-08-20 16:21:00,90.8,71.8,30.13,WSW,248,0.0,0.0,54,0.00,,,0.00,WUHU216HW,2013-08-20 20:21:00,
2013-08-20 16:27:00,91.2,71.6,30.13,WSW,248,0.0,0.0,53,0.00,,,0.00,WUHU216HW,2013-08-20 20:27:00,
2013-08-20 16:33:00,91.2,71.6,30.13,WSW,248,0.0,0.0,53,0.00,,,0.00,WUHU216HW,2013-08-20 20:33:00,
2013-08-20 16:38:00,90.6,72.2,30.13,WSW,248,0.0,0.0,55,0.00,,,0.00,WUHU216HW,2013-08-20 20:38:00,
2013-08-20 16:43:00,90.3,71.8,30.13,WSW,248,0.0,0.0,55,0.00,,,0.00,WUHU216HW,2013-08-20 20:43:00,
2013-08-20 16:49:00,89.4,71.6,30.13,WSW,248,0.0,0.0,56,0.00,,,0.00,WUHU216HW,2013-08-20 20:49:00,
2013-08-20 16:55:00,89.2,72.5,30.13,WSW,248,0.0,0.0,58,0.00,,,0.00,WUHU216HW,2013-08-20 20:55:00,
2013-08-20 17:00:00,89.4,72.6,30.13,WSW,248,0.0,0.0,58,0.00,,,0.00,WUHU216HW,2013-08-20 21:00:00,
2013-08-20 17:05:00,89.6,72.8,30.13,WSW,248,0.0,0.0,58,0.00,,,0.00,WUHU216HW,2013-08-20 21:05:00,
2013-08-20 17:11:00,89.7,73.5,30.13,WSW,248,0.0,0.0,59,0.00,,,0.00,WUHU216HW,2013-08-20 21:11:00,
2013-08-20 17:17:00,89.7,72.4,30.13,WSW,248,0.0,0.0,57,0.00,,,0.00,WUHU216HW,2013-08-20 21:17:00,
2013-08-20 17:22:00,89.7,73.0,30.13,WSW,248,0.0,0.0,58,0.00,,,0.00,WUHU216HW,2013-08-20 21:22:00,
2013-08-20 17:27:00,89.7,73.0,30.13,WSW,248,0.0,0.0,58,0.00,,,0.00,WUHU216HW,2013-08-20 21:27:00,
2013-08-20 17:33:00,89.4,73.2,30.13,WSW,248,0.0,0.0,59,0.00,,,0.00,WUHU216HW,2013-08-20 21:33:00,
2013-08-20 17:38:00,89.2,73.0,30.12,WSW,248,0.0,0.0,59,0.00,,,0.00,WUHU216HW,2013-08-20 21:38:00,
2013-08-20 17:44:00,88.8,73.2,30.13,WSW,248,0.0,0.0,60,0.00,,,0.00,WUHU216HW,2013-08-20 21:44:00,
2013-08-20 17:49:00,88.7,73.1,30.13,WSW,248,0.0,0.0,60,0.00,,,0.00,WUHU216HW,2013-08-20 21:49:00,
2013-08-20 17:55:00,88.3,72.8,30.13,WSW,248,0.0,0.0,60,0.00,,,0.00,WUHU216HW,2013-08-20 21:55:00,
2013-08-20 18:01:00,87.9,72.4,30.13,WSW,248,0.0,0.0,60,0.00,,,0.00,WUHU216HW,2013-08-20 22:01:00,
2013-08-20 18:06:00,87.9,72.9,30.12,SSW,203,0.0,0.0,61,0.00,,,0.00,WUHU216HW,2013-08-20 22:06:00,
2013-08-20 18:11:00,87.6,72.5,30.13,SSW,203,0.0,0.0,61,0.00,,,0.00,WUHU216HW,2013-08-20 22:11:00,
2013-08-20 18:17:00,87.0,72.0,30.12,SSW,203,0.0,0.0,61,0.00,,,0.00,WUHU216HW,2013-08-20 22:17:00,
2013-08-20 18:22:00,86.3,71.7,30.13,SSW,203,0.0,0.0,62,0.00,,,0.00,WUHU216HW,2013-08-20 22:22:00,
2013-08-20 18:28:00,85.8,71.2,30.13,SSW,203,0.0,0.0,62,0.00,,,0.00,WUHU216HW,2013-08-20 22:28:00,
2013-08-20 18:33:00,85.2,71.2,30.12,SSW,203,0.0,0.0,63,0.00,,,0.00,WUHU216HW,2013-08-20 22:33:00,
2013-08-20 18:39:00,84.9,70.9,30.12,SSW,203,0.0,0.0,63,0.00,,,0.00,WUHU216HW,2013-08-20 22:39:00,
2013-08-20 18:45:00,84.3,70.4,30.12,SSW,203,0.0,0.0,63,0.00,,,0.00,WUHU216HW,2013-08-20 22:45:00,
2013-08-20 18:50:00,83.4,69.9,30.12,SSW,203,0.0,0.0,64,0.00,,,0.00,WUHU216HW,2013-08-20 22:50:00,
2013-08-20 18:55:00,83.1,69.6,30.12,SSW,203,0.0,0.0,64,0.00,,,0.00,WUHU216HW,2013-08-20 22:55:00,
2013-08-20 19:01:00,82.5,69.0,30.12,SSW,203,0.0,0.0,64,0.00,,,0.00,WUHU216HW,2013-08-20 23:01:00,
2013-08-20 19:06:00,82.0,68.5,30.12,SSW,203,0.0,0.0,64,0.00,,,0.00,WUHU216HW,2013-08-20 23:06:00,
2013-08-20 19:12:00,81.1,68.2,30.13,SSW,203,0.0,0.0,65,0.00,,,0.00,WUHU216HW,2013-08-20 23:12:00,
2013-08-20 19:17:00,80.4,67.5,30.13,SSW,203,0.0,0.0,65,0.00,,,0.00,WUHU216HW,2013-08-20 23:17:00,
2013-08-20 19:23:00,79.5,67.1,30.12,SSW,203,0.0,0.0,66,0.00,,,0.00,WUHU216HW,2013-08-20 23:23:00,
2013-08-20 19:29:00,78.8,66.4,30.13,SSW,203,0.0,0.0,66,0.00,,,0.00,WUHU216HW,2013-08-20 23:29:00,
2013-08-20 19:34:00,78.4,66.5,30.12,SSW,203,0.0,0.0,67,0.00,,,0.00,WUHU216HW,2013-08-20 23:34:00,
2013-08-20 19:39:00,77.7,66.1,30.12,SSW,203,0.0,0.0,68,0.00,,,0.00,WUHU216HW,2013-08-20 23:39:00,
2013-08-20 19:45:00,77.1,65.8,30.12,SSW,203,0.0,0.0,68,0.00,,,0.00,WUHU216HW,2013-08-20 23:45:00,
2013-08-20 19:51:00,76.2,65.3,30.13,SSW,203,0.0,0.0,69,0.00,,,0.00,WUHU216HW,2013-08-20 23:51:00,
2013-08-20 19:57:00,75.7,65.3,30.13,SSW,203,0.0,0.0,70,0.00,,,0.00,WUHU216HW,2013-08-20 23:57:00,
2013-08-20 20:02:00,75.3,64.9,30.13,SSW,203,0.0,0.0,70,0.00,,,0.00,WUHU216HW,2013-08-21 00:02:00,
2013-08-20 20:07:00,74.8,64.8,30.13,SSW,203,0.0,0.0,71,0.00,,,0.00,WUHU216HW,2013-08-21 00:07:00,
2013-08-20 20:12:00,74.3,64.3,30.13,SSW,203,0.0,0.0,71,0.00,,,0.00,WUHU216HW,2013-08-21 00:12:00,
2013-08-20 20:17:00,74.1,64.5,30.13,SSW,203,0.0,0.0,72,0.00,,,0.00,WUHU216HW,2013-08-21 00:17:00,
2013-08-20 20:23:00,73.5,64.4,30.13,SSW,203,0.0,0.0,73,0.00,,,0.00,WUHU216HW,2013-08-21 00:23:00,
2013-08-20 20:28:00,73.2,64.0,30.13,SSW,203,0.0,0.0,73,0.00,,,0.00,WUHU216HW,2013-08-21 00:28:00,
2013-08-20 20:33:00,73.0,64.2,30.13,SSW,203,0.0,0.0,74,0.00,,,0.00,WUHU216HW,2013-08-21 00:33:00,
2013-08-20 20:39:00,72.5,63.7,30.13,SSW,203,0.0,0.0,74,0.00,,,0.00,WUHU216HW,2013-08-21 00:39:00,
2013-08-20 20:45:00,72.3,63.9,30.13,SSW,203,0.0,0.0,75,0.00,,,0.00,WUHU216HW,2013-08-21 00:45:00,
2013-08-20 20:51:00,72.1,64.1,30.14,SSW,203,0.0,0.0,76,0.00,,,0.00,WUHU216HW,2013-08-21 00:51:00,
2013-08-20 20:56:00,71.7,63.7,30.14,SSW,203,0.0,0.0,76,0.00,,,0.00,WUHU216HW,2013-08-21 00:56:00,
2013-08-20 21:02:00,71.4,63.4,30.14,SSW,203,0.0,0.0,76,0.00,,,0.00,WUHU216HW,2013-08-21 01:02:00,
2013-08-20 21:07:00,71.2,63.6,30.14,SSW,203,0.0,0.0,77,0.00,,,0.00,WUHU216HW,2013-08-21 01:07:00,
2013-08-20 21:12:00,71.2,63.6,30.15,SSW,203,0.0,0.0,77,0.00,,,0.00,WUHU216HW,2013-08-21 01:12:00,
2013-08-20 21:18:00,70.8,63.6,30.15,SSW,203,0.0,0.0,78,0.00,,,0.00,WUHU216HW,2013-08-21 01:18:00,
2013-08-20 21:23:00,70.5,63.2,30.15,SSW,203,0.0,0.0,78,0.00,,,0.00,WUHU216HW,2013-08-21 01:23:00,
2013-08-20 21:28:00,70.3,63.1,30.15,SSW,203,0.0,0.0,78,0.00,,,0.00,WUHU216HW,2013-08-21 01:28:00,
2013-08-20 21:34:00,70.1,62.9,30.15,SSW,203,0.0,0.0,78,0.00,,,0.00,WUHU216HW,2013-08-21 01:34:00,
2013-08-20 21:40:00,69.9,63.1,30.15,SSW,203,0.0,0.0,79,0.00,,,0.00,WUHU216HW,2013-08-21 01:40:00,
2013-08-20 21:45:00,69.6,62.7,30.15,SSW,203,0.0,0.0,79,0.00,,,0.00,WUHU216HW,2013-08-21 01:45:00,
2013-08-20 21:50:00,69.4,62.6,30.16,SSW,203,0.0,0.0,79,0.00,,,0.00,WUHU216HW,2013-08-21 01:50:00,
2013-08-20 21:55:00,69.2,62.4,30.16,SSW,203,0.0,0.0,79,0.00,,,0.00,WUHU216HW,2013-08-21 01:55:00,
2013-08-20 22:01:00,68.9,62.1,30.16,SSW,203,0.0,0.0,79,0.00,,,0.00,WUHU216HW,2013-08-21 02:01:00,
2013-08-20 22:06:00,68.7,62.3,30.16,SSW,203,0.0,0.0,80,0.00,,,0.00,WUHU216HW,2013-08-21 02:06:00,
2013-08-20 22:11:00,68.5,62.1,30.16,SSW,203,0.0,0.0,80,0.00,,,0.00,WUHU216HW,2013-08-21 02:11:00,
2013-08-20 22:16:00,68.3,62.0,30.16,SSW,203,0.0,0.0,80,0.00,,,0.00,WUHU216HW,2013-08-21 02:16:00,
2013-08-20 22:21:00,68.1,61.8,30.16,SSW,203,0.0,0.0,80,0.00,,,0.00,WUHU216HW,2013-08-21 02:21:00,
2013-08-20 22:27:00,67.8,61.8,30.15,SSW,203,0.0,0.0,81,0.00,,,0.00,WUHU216HW,2013-08-21 02:27:00,
2013-08-20 22:32:00,67.8,61.8,30.16,SSW,203,0.0,0.0,81,0.00,,,0.00,WUHU216HW,2013-08-21 02:32:00,
2013-08-20 22:38:00,67.6,61.6,30.16,SSW,203,0.0,0.0,81,0.00,,,0.00,WUHU216HW,2013-08-21 02:38:00,
2013-08-20 22:43:00,67.2,61.3,30.16,SSW,203,0.0,0.0,81,0.00,,,0.00,WUHU216HW,2013-08-21 02:43:00,
2013-08-20 22:49:00,67.2,61.3,30.16,SSW,203,0.0,0.0,81,0.00,,,0.00,WUHU216HW,2013-08-21 02:49:00,
2013-08-20 22:55:00,66.9,60.9,30.16,SSW,203,0.0,0.0,81,0.00,,,0.00,WUHU216HW,2013-08-21 02:55:00,
2013-08-20 23:01:00,66.7,61.0,30.16,SSW,203,0.0,0.0,82,0.00,,,0.00,WUHU216HW,2013-08-21 03:01:00,
2013-08-20 23:06:00,66.7,61.0,30.16,SSW,203,0.0,0.0,82,0.00,,,0.00,WUHU216HW,2013-08-21 03:06:00,
2013-08-20 23:12:00,66.3,60.7,30.16,SSW,203,0.0,0.0,82,0.00,,,0.00,WUHU216HW,2013-08-21 03:12:00,
2013-08-20 23:17:00,66.3,60.7,30.16,SSW,203,0.0,0.0,82,0.00,,,0.00,WUHU216HW,2013-08-21 03:17:00,
2013-08-20 23:23:00,66.0,60.3,30.16,SSW,203,0.0,0.0,82,0.00,,,0.00,WUHU216HW,2013-08-21 03:23:00,
2013-08-20 23:28:00,66.0,60.6,30.16,SSW,203,0.0,0.0,83,0.00,,,0.00,WUHU216HW,2013-08-21 03:28:00,
2013-08-20 23:33:00,65.8,60.5,30.16,SSW,203,0.0,0.0,83,0.00,,,0.00,WUHU216HW,2013-08-21 03:33:00,
2013-08-20 23:38:00,65.8,60.5,30.16,SSW,203,0.0,0.0,83,0.00,,,0.00,WUHU216HW,2013-08-21 03:38:00,
2013-08-20 23:44:00,65.4,60.1,30.16,SSW,203,0.0,0.0,83,0.00,,,0.00,WUHU216HW,2013-08-21 03:44:00,
2013-08-20 23:49:00,65.4,60.1,30.16,SSW,203,0.0,0.0,83,0.00,,,0.00,WUHU216HW,2013-08-21 03:49:00,
2013-08-20 23:55:00,65.3,59.9,30.15,SSW,203,0.0,0.0,83,0.00,,,0.00,WUHU216HW,2013-08-21 03:55:00,